Princeton, MN

6:14 PM CST on December 07, 2019 (GMT -0600)
Princeton Municipal

Weather History for KPNM - May, 2019

Change the Weather History Date:

Tuesday, May 14, 2019

  Actual Average Record
Temperature  
Mean Temperature 58 °F -  
Max Temperature 77 °F 64 °F 93 °F (2013)
Min Temperature 39 °F 41 °F 28 °F (2016)
Degree Days  
Heating Degree Days 7    
Growing Degree Days 8 (Base 50)    
Moisture  
Dew Point 45 °F    
Average Humidity 61    
Maximum Humidity 93    
Minimum Humidity 36    
Precipitation  
Precipitation 0.00 in - - ()
Sea Level Pressure  
Sea Level Pressure 29.91 in    
Wind  
Wind Speed 2 mph (SSE)    
Max Wind Speed 12 mph    
Max Gust Speed 18 mph    
Visibility 10 miles    
Events Thunderstorm    
Averages and records for this station are not official NWS values.
T = Trace of Precipitation, MM = Missing Value Source: NWS Daily Summary

Daily Weather History Graph

Daily Weather History Graph

Search for Another Location

Airport or City:

Astronomy

May. 14, 2019 Rise Set
Actual Time 5:45 AM CDT 8:37 PM CDT
Civil Twilight 5:10 AM CDT 9:11 PM CDT
Nautical Twilight 4:26 AM CDT 9:56 PM CDT
Astronomical Twilight 3:34 AM CDT 10:48 PM CDT
Moon 3:41 PM CDT (5/14) 3:58 AM CDT (5/14)
Length of Visible Light 16h 01m
Length of Day
14h 52m
Waxing Gibbous, 79% of the Moon is Illuminated
May 14
Waxing Gibbous
May 18
Full
May 26
Last Quarter
Jun 3
New
Jun 10
First Quarter

Hourly Weather History & Observations

Time (CDT) Temp. Dew Point Humidity Pressure Visibility Wind Dir Wind Speed Gust Speed Precip Events Conditions
12:15 AM 46.4 °F 39.2 °F 76% 29.92 in 10.0 mi Calm Calm - N/A   Clear
12:35 AM 46.4 °F 39.2 °F 76% 29.92 in 10.0 mi Calm Calm - N/A   Clear
12:36 AM 46.4 °F 39.2 °F 76% 29.92 in 10.0 mi Calm Calm - N/A   Clear
12:55 AM 46.4 °F 41.0 °F 81% 29.92 in 10.0 mi Calm Calm - N/A   Clear
1:15 AM 44.6 °F 39.2 °F 81% 29.91 in 10.0 mi Calm Calm - N/A   Clear
1:16 AM 44.6 °F 39.2 °F 81% 29.91 in 10.0 mi Calm Calm - N/A   Clear
1:35 AM 44.6 °F 39.2 °F 81% 29.91 in 10.0 mi Calm Calm - N/A   Clear
1:36 AM 44.6 °F 39.2 °F 81% 29.91 in 10.0 mi Calm Calm - N/A   Clear
1:55 AM 44.6 °F 41.0 °F 87% 29.91 in 10.0 mi Calm Calm - N/A   Clear
2:15 AM 44.6 °F 41.0 °F 87% 29.91 in 10.0 mi Calm Calm - N/A   Clear
2:35 AM 42.8 °F 39.2 °F 87% 29.91 in 10.0 mi Calm Calm - N/A   Clear
2:36 AM 42.8 °F 39.2 °F 87% 29.91 in 10.0 mi Calm Calm - N/A   Clear
2:55 AM 42.8 °F 39.2 °F 87% 29.90 in 10.0 mi Calm Calm - N/A   Clear
2:56 AM 42.8 °F 39.2 °F 87% 29.90 in 10.0 mi Calm Calm - N/A   Clear
3:15 AM 42.8 °F 39.2 °F 87% 29.91 in 10.0 mi Calm Calm - N/A   Clear
3:16 AM 42.8 °F 39.2 °F 87% 29.91 in 10.0 mi Calm Calm - N/A   Clear
3:35 AM 41.0 °F 37.4 °F 87% 29.91 in 10.0 mi Calm Calm - N/A   Clear
3:36 AM 41.0 °F 37.4 °F 87% 29.91 in 10.0 mi Calm Calm - N/A   Clear
3:55 AM 41.0 °F 37.4 °F 87% 29.91 in 10.0 mi Calm Calm - N/A   Clear
4:15 AM 41.0 °F 39.2 °F 93% 29.91 in 10.0 mi Calm Calm - N/A   Clear
4:16 AM 41.0 °F 39.2 °F 93% 29.91 in 10.0 mi Calm Calm - N/A   Clear
4:35 AM 41.0 °F 39.2 °F 93% 29.91 in 10.0 mi Calm Calm - N/A   Clear
4:36 AM 41.0 °F 39.2 °F 93% 29.91 in 10.0 mi Calm Calm - N/A   Clear
4:55 AM 41.0 °F 39.2 °F 93% 29.91 in 10.0 mi Calm Calm - N/A   Clear
5:15 AM 41.0 °F 39.2 °F 93% 29.91 in 10.0 mi Calm Calm - N/A   Clear
5:16 AM 41.0 °F 39.2 °F 93% 29.91 in 10.0 mi Calm Calm - N/A   Clear
5:35 AM 39.2 °F 37.4 °F 93% 29.91 in 10.0 mi Calm Calm - N/A   Clear
5:55 AM 41.0 °F 39.2 °F 93% 29.91 in 10.0 mi Calm Calm - N/A   Clear
6:15 AM 41.0 °F 39.2 °F 93% 29.92 in 10.0 mi Calm Calm - N/A   Clear
6:35 AM 42.8 °F 41.0 °F 93% 29.92 in 10.0 mi Calm Calm - N/A   Clear
6:36 AM 42.8 °F 41.0 °F 93% 29.92 in 10.0 mi Calm Calm - N/A   Clear
6:55 AM 44.6 °F 42.8 °F 93% 29.92 in 10.0 mi Calm Calm - N/A   Clear
7:15 AM 50.0 °F 44.6 °F 82% 29.93 in 10.0 mi Calm Calm - N/A   Clear
7:35 AM 53.6 °F 42.8 °F 67% 29.93 in 10.0 mi SE 3.5 mph - N/A   Clear
7:36 AM 53.6 °F 42.8 °F 67% 29.93 in 10.0 mi Calm Calm - N/A   Clear
7:55 AM 57.2 °F 44.6 °F 63% 29.93 in 10.0 mi South 3.5 mph - N/A   Clear
7:56 AM 57.2 °F 44.6 °F 63% 29.93 in 10.0 mi South 4.6 mph - N/A   Clear
8:15 AM 59.0 °F 44.6 °F 59% 29.93 in 10.0 mi South 3.5 mph - N/A   Clear
8:16 AM 60.8 °F 44.6 °F 55% 29.93 in 10.0 mi SSE 3.5 mph - N/A   Clear
8:35 AM 60.8 °F 44.6 °F 55% 29.93 in 10.0 mi SSW 4.6 mph - N/A   Clear
8:55 AM 62.6 °F 46.4 °F 55% 29.93 in 10.0 mi SSE 3.5 mph - N/A   Clear
9:15 AM 64.4 °F 46.4 °F 52% 29.93 in 10.0 mi South 3.5 mph - N/A   Clear
9:16 AM 64.4 °F 46.4 °F 52% 29.93 in 10.0 mi South 3.5 mph - N/A   Clear
9:35 AM 66.2 °F 48.2 °F 52% 29.93 in 10.0 mi South 6.9 mph - N/A   Clear
9:55 AM 66.2 °F 48.2 °F 52% 29.93 in 10.0 mi South 5.8 mph - N/A   Clear
10:15 AM 68.0 °F 48.2 °F 49% 29.93 in 10.0 mi Calm Calm - N/A   Clear
10:16 AM 68.0 °F 48.2 °F 49% 29.93 in 10.0 mi SSW 4.6 mph - N/A   Clear
10:35 AM 69.8 °F 48.2 °F 46% 29.92 in 10.0 mi SSW 4.6 mph - N/A   Clear
10:55 AM 69.8 °F 48.2 °F 46% 29.92 in 10.0 mi SSE 6.9 mph - N/A   Clear
10:56 AM 69.8 °F 48.2 °F 46% 29.92 in 10.0 mi SSE 6.9 mph - N/A   Clear
11:15 AM 71.6 °F 48.2 °F 43% 29.92 in 10.0 mi South 8.1 mph - N/A   Clear
11:16 AM 71.6 °F 48.2 °F 43% 29.92 in 10.0 mi South 8.1 mph - N/A   Clear
11:35 AM 69.8 °F 48.2 °F 46% 29.92 in 10.0 mi SSW 8.1 mph - N/A   Clear
11:55 AM 69.8 °F 48.2 °F 46% 29.92 in 10.0 mi SSW 3.5 mph - N/A   Scattered Clouds
11:56 AM 69.8 °F 48.2 °F 46% 29.92 in 10.0 mi South 4.6 mph - N/A   Scattered Clouds
12:15 PM 69.8 °F 44.6 °F 40% 29.92 in 10.0 mi East 4.6 mph - N/A   Mostly Cloudy
12:16 PM 69.8 °F 44.6 °F 40% 29.92 in 10.0 mi ESE 5.8 mph - N/A   Mostly Cloudy
12:35 PM 71.6 °F 46.4 °F 41% 29.92 in 10.0 mi Calm Calm - N/A   Mostly Cloudy
12:55 PM 71.6 °F 46.4 °F 41% 29.91 in 10.0 mi SE 5.8 mph - N/A   Scattered Clouds
12:56 PM 71.6 °F 48.2 °F 43% 29.91 in 10.0 mi SSE 6.9 mph - N/A   Scattered Clouds
1:15 PM 71.6 °F 48.2 °F 43% 29.91 in 10.0 mi South 8.1 mph - N/A   Scattered Clouds
1:35 PM 73.4 °F 46.4 °F 38% 29.91 in 10.0 mi South 5.8 mph - N/A   Mostly Cloudy
1:36 PM 73.4 °F 46.4 °F 38% 29.91 in 10.0 mi SW 6.9 mph - N/A   Mostly Cloudy
1:55 PM 73.4 °F 46.4 °F 38% 29.91 in 10.0 mi SE 6.9 mph 18.4 mph N/A   Mostly Cloudy
1:56 PM 73.4 °F 46.4 °F 38% 29.91 in 10.0 mi SE 5.8 mph 18.4 mph N/A   Mostly Cloudy
2:15 PM 73.4 °F 48.2 °F 41% 29.90 in 10.0 mi SE 4.6 mph - N/A   Mostly Cloudy
2:35 PM 75.2 °F 48.2 °F 38% 29.90 in 10.0 mi ESE 8.1 mph - N/A   Scattered Clouds
2:36 PM 75.2 °F 48.2 °F 38% 29.90 in 10.0 mi SE 6.9 mph - N/A   Scattered Clouds
2:55 PM 75.2 °F 46.4 °F 36% 29.90 in 10.0 mi ESE 3.5 mph - N/A   Scattered Clouds
2:56 PM 75.2 °F 46.4 °F 36% 29.90 in 10.0 mi South 5.8 mph - N/A   Scattered Clouds
3:15 PM 75.2 °F 46.4 °F 36% 29.89 in 10.0 mi SSE 5.8 mph - N/A   Mostly Cloudy
3:16 PM 75.2 °F 46.4 °F 36% 29.89 in 10.0 mi South 5.8 mph - N/A   Scattered Clouds
3:35 PM 75.2 °F 46.4 °F 36% 29.89 in 10.0 mi SSE 4.6 mph 9.2 mph N/A   Mostly Cloudy
3:36 PM 75.2 °F 46.4 °F 36% 29.89 in 10.0 mi SE 3.5 mph 9.2 mph N/A   Mostly Cloudy
3:55 PM 75.2 °F 46.4 °F 36% 29.88 in 10.0 mi SSW 4.6 mph - N/A   Scattered Clouds
3:56 PM 75.2 °F 46.4 °F 36% 29.88 in 10.0 mi SSW 8.1 mph - N/A   Scattered Clouds
4:15 PM 75.2 °F 46.4 °F 36% 29.88 in 10.0 mi South 4.6 mph - N/A   Clear
4:35 PM 75.2 °F 46.4 °F 36% 29.88 in 10.0 mi SSW 6.9 mph - N/A   Scattered Clouds
4:55 PM 75.2 °F 46.4 °F 36% 29.88 in 10.0 mi SSW 3.5 mph - N/A   Scattered Clouds
4:56 PM 75.2 °F 46.4 °F 36% 29.88 in 10.0 mi SSW 3.5 mph - N/A   Scattered Clouds
5:15 PM 77.0 °F 48.2 °F 36% 29.87 in 10.0 mi WSW 4.6 mph - N/A   Clear
5:35 PM 75.2 °F 46.4 °F 36% 29.88 in 10.0 mi Calm Calm - N/A   Clear
5:55 PM 75.2 °F 48.2 °F 38% 29.88 in 10.0 mi SSE 4.6 mph - N/A   Clear
5:56 PM 75.2 °F 48.2 °F 38% 29.88 in 10.0 mi SE 3.5 mph - N/A   Clear
6:15 PM 75.2 °F 48.2 °F 38% 29.87 in 10.0 mi Calm Calm - N/A   Scattered Clouds
6:35 PM 73.4 °F 48.2 °F 41% 29.87 in 10.0 mi SW 4.6 mph - N/A   Scattered Clouds
6:36 PM 75.2 °F 48.2 °F 38% 29.87 in 10.0 mi SW 4.6 mph - N/A   Scattered Clouds
6:55 PM 73.4 °F 50.0 °F 44% 29.87 in 10.0 mi SW 3.5 mph - N/A   Clear
7:15 PM 73.4 °F 50.0 °F 44% 29.87 in 10.0 mi SSW 3.5 mph - N/A   Clear
7:35 PM 71.6 °F 50.0 °F 46% 29.88 in 10.0 mi Calm Calm - N/A   Scattered Clouds
7:36 PM 71.6 °F 50.0 °F 46% 29.88 in 10.0 mi Calm Calm - N/A   Scattered Clouds
7:55 PM 71.6 °F 51.8 °F 50% 29.88 in 10.0 mi Calm Calm - N/A   Scattered Clouds
8:15 PM 68.0 °F 51.8 °F 56% 29.90 in 10.0 mi North 11.5 mph - N/A   Scattered Clouds
8:35 PM 64.4 °F 50.0 °F 59% 29.90 in 10.0 mi NNE 11.5 mph - N/A Thunderstorm Scattered Clouds
8:55 PM 62.6 °F 50.0 °F 63% 29.91 in 10.0 mi North 9.2 mph - N/A   Clear
9:15 PM 62.6 °F 50.0 °F 63% 29.92 in 10.0 mi NNE 5.8 mph - N/A   Clear
9:16 PM 62.6 °F 50.0 °F 63% 29.92 in 10.0 mi NNE 4.6 mph - N/A   Clear
9:35 PM 60.8 °F 50.0 °F 68% 29.92 in 10.0 mi NNE 4.6 mph - N/A   Mostly Cloudy
9:36 PM 60.8 °F 50.0 °F 68% 29.92 in 10.0 mi NNE 4.6 mph - N/A   Mostly Cloudy
9:55 PM 60.8 °F 50.0 °F 68% 29.94 in 10.0 mi Calm Calm - N/A   Overcast
10:15 PM 60.8 °F 50.0 °F 68% 29.94 in 10.0 mi Calm Calm - N/A   Mostly Cloudy
10:16 PM 60.8 °F 50.0 °F 68% 29.94 in 10.0 mi Calm Calm - N/A   Mostly Cloudy
10:35 PM 59.0 °F 48.2 °F 67% 29.95 in 10.0 mi NNE 3.5 mph - N/A   Scattered Clouds
10:36 PM 59.0 °F 48.2 °F 67% 29.95 in 10.0 mi NE 3.5 mph - N/A   Scattered Clouds
10:55 PM 59.0 °F 50.0 °F 72% 29.94 in 10.0 mi Calm Calm - N/A   Scattered Clouds
11:15 PM 55.4 °F 48.2 °F 77% 29.95 in 10.0 mi NNW 4.6 mph - N/A   Scattered Clouds
11:35 PM 55.4 °F 48.2 °F 77% 29.95 in 10.0 mi Calm Calm - N/A Thunderstorm Mostly Cloudy
11:55 PM 55.4 °F 50.0 °F 82% 29.94 in 10.0 mi Calm Calm - N/A   Overcast